[[{"header":{"parameterUnit":"m.s-1","parameterCategory":1,"la1":30.2991,"la2":30.254,"lo1":-89.0895,"lo2":-89.0444,"dy":0.0017,"dx":0.0017,"nx":28,"ny":28,"refTime":"2025-05-26T03:00:00:Z","depth":0,"parameterNumber":2,"parameterNumberName":"U-component_of_WINDS"},"data":[0,0,0,0,0,0,0,0,0,0,0,0,0,0,0,0,0,0,0,0,0,0,0,0,0,0,0,0,0,0,0,0,0,0,0,0,0,0,0,0,0,0,0,0,0,0,0,0,0,0,0,0,0,0,0,0,0,0,0.9416,0.9416,0,0.9422,0.9422,0.9422,0.946,0.9461,0.9462,0.9463,0.9467,0.9466,0.9466,0,0,0,0,0,0,0,0,0,0,0,0,0,0.9439,0.9438,0.9416,0.9416,0.9416,0.9422,0.9422,0.9422,0.946,0.9461,0.9462,0.9463,0.9467,0.9467,0.9466,0,0,0,0,0,0,0,0,0,0,0,0,0,0.9435,0.9438,0.9416,0.9436,0.9438,0.9422,0.9422,0.9422,0.946,0.9461,0.9463,0.9464,0.9468,0.9467,0.9465,0.943,0,0,0.9462,0.9461,0,0,0,0,0,0,0,0,0.9435,0.9434,0.9433,0.9435,0.9437,0.9442,0.9431,0.9424,0.9459,0.9451,0.9463,0.9465,0.9457,0.9457,0.9455,0.943,0.943,0.9462,0.9461,0.9461,0.946,0,0,0,0,0,0,0,0.9435,0.9434,0.9418,0.9433,0.9435,0.9445,0.9446,0.943,0.9446,0.9452,0.9455,0.9455,0.9459,0.9456,0.9455,0.943,0.9462,0.9461,0.946,0.946,0.938,0.9378,0,0,0,0,0,0,0.9433,0.9434,0.9418,0.9418,0.9439,0.9443,0.9444,0.9439,0.9447,0.9449,0.9454,0.9457,0.9457,0.9457,0.9456,0.9417,0.9461,0.946,0.9459,0.9381,0.9379,0.9378,0,0,0,0,0,0,0.9433,0.9431,0.9418,0.9427,0.9426,0.9441,0.9435,0.9438,0.9435,0.9448,0.9451,0.9448,0.9458,0.9457,0.9437,0.9417,0.9459,0.9458,0.9383,0.9381,0.9379,0.9337,0,0,0,0,0,0,0.9434,0.9431,0.9417,0.9426,0.9425,0.9398,0.9433,0.9437,0.9434,0.9437,0.9444,0.9446,0.946,0.9438,0.9436,0.9416,0.9457,0.9385,0.9382,0.9379,0.934,0.9334,0.9328,0,0,0,0,0,0.9435,0.9404,0.9416,0.9414,0.9409,0.9397,0.9396,0.9413,0.9432,0.9419,0.9427,0.9446,0.942,0.9436,0.9433,0.9413,0.9386,0.9383,0.9379,0.9343,0.9335,0.9328,0,0,0,0,0,0,0.9391,0.9406,0.9419,0.9391,0.9393,0.9404,0.9387,0.9404,0.94,0.9403,0.9424,0.9425,0.9402,0.9406,0.9423,0.9381,0.9406,0.9402,0.9379,0.9372,0.9366,0.9366,0.9456,0,0,0,0,0,0.9378,0.9368,0.9381,0.9355,0.9356,0.9371,0.9367,0.938,0.9382,0.9383,0.939,0.9391,0.9384,0.9378,0.9371,0.9341,0.9344,0.9326,0.932,0.9315,0.9312,0.9298,0.9291,0.9367,0.9367,0.9367,0,0,0.9352,0.9359,0.935,0.9347,0.935,0.9339,0.9371,0.9358,0.935,0.938,0.9362,0.9367,0.937,0.9345,0.9335,0.9348,0.9292,0.9311,0.9307,0.9306,0.9294,0.9287,0.9281,0.9365,0.9365,0.9366,0,0,0.9298,0.9301,0.9281,0.9284,0.9289,0.93,0.9295,0.9304,0.9309,0.9291,0.9315,0.9306,0.9292,0.9294,0.9293,0.9243,0.9261,0.9241,0.9209,0.9196,0.919,0.9185,0.9169,0.9163,0.9237,0.9237,0.9237,0,0.9264,0.9249,0.9269,0.9255,0.9253,0.9282,0.9262,0.9264,0.9265,0.9264,0.9279,0.9264,0.9267,0.9245,0.9233,0.9231,0.9227,0.924,0.9189,0.9184,0.918,0.9165,0.9159,0.9235,0.9235,0.9235,0.9235,0,0.9208,0.9197,0.9181,0.9184,0.918,0.9163,0.9181,0.9176,0.919,0.92,0.9182,0.9188,0.9185,0.918,0.9193,0.916,0.9168,0.9186,0.9212,0.917,0.9156,0.9151,0.9231,0.9232,0.9233,0.9233,0,0,0.9125,0.9141,0.9135,0.9138,0.9146,0.9139,0.9124,0.9122,0.9118,0.9118,0.9107,0.9096,0.9114,0.9113,0.9126,0.9115,0.9078,0.9134,0.9135,0.9125,0.9044,0.9031,0.9024,0.909,0.9088,0.9088,0.9044,0,0.9075,0.9051,0.907,0.9043,0.9035,0.9063,0.9051,0.9055,0.9064,0.9059,0.9069,0.9062,0.9084,0.9084,0.9074,0.9084,0.9062,0.9088,0.908,0.908,0.9079,0.9017,0.9003,0.8961,0.9039,0.9038,0.9037,0,0.9012,0.9012,0.8985,0.8998,0.8996,0.8984,0.8985,0.8979,0.8985,0.8993,0.8994,0.9011,0.8999,0.9025,0.9009,0.9026,0.9024,0.9029,0.9028,0.9028,0.9056,0.9016,0.8948,0.8942,0.9029,0.9029,0.903,0,0.8956,0.895,0.8933,0.8935,0.8949,0.8941,0.8946,0.8954,0.8953,0.8953,0.8953,0.8952,0.8951,0.895,0.8968,0.8985,0.895,0.8977,0.8957,0.8957,0.8949,0.8949,0.888,0.8946,0.8946,0.8946,0.8947,0,0.8898,0.8881,0.8909,0.8899,0.8881,0.8903,0.8885,0.8893,0.8901,0.8893,0.8917,0.891,0.8933,0.8928,0.8942,0.8928,0.8927,0.8934,0.8937,0.8932,0.8931,0.8931,0.8935,0.8945,0.8945,0.8945,0.8946,0,0.8832,0.885,0.8835,0.8851,0.8855,0.8841,0.8855,0.8847,0.8859,0.8849,0.8848,0.8867,0.8863,0.8881,0.8879,0.8889,0.8868,0.8876,0.8866,0.8869,0.8849,0.8851,0.8778,0.8771,0.8841,0.884,0.8839,0,0.8794,0.8782,0.8798,0.8796,0.88,0.8795,0.8795,0.8817,0.8816,0.8824,0.8815,0.8813,0.8813,0.8805,0.8819,0.8819,0.8828,0.8803,0.8828,0.8823,0.8829,0.883,0.883,0.8797,0.8796,0.8796,0.8795,0,0.8726,0.8736,0.8735,0.8737,0.8736,0.8739,0.8743,0.8739,0.8764,0.8761,0.8758,0.8758,0.8758,0.8757,0.876,0.8766,0.8785,0.8787,0.8783,0.8777,0.8772,0.8776,0.8853,0.8789,0.8789,0.879,0.879,0.879,0.8674,0.8665,0.8676,0.8674,0.868,0.8684,0.8678,0.8691,0.8689,0.8692,0.8705,0.87,0.8709,0.8716,0.872,0.8717,0.8729,0.8722,0.8721,0.8719,0.8716,0.8773,0.8718,0.8718,0.8718,0.8718,0.8718,0,0.8607,0.8616,0.8615,0.8621,0.862,0.864,0.8646,0.8644,0.864,0.8647,0.8648,0.8645,0.8645,0.866,0.8661,0.8656,0.8665,0.8656,0.8657,0.8658,0.8705,0.8709,0.8649,0.8649,0.8649,0.8649,0.8649,0.8649,0.8573,0.856,0.8572,0.8564,0.8573,0.8569,0.8572,0.8576,0.8583,0.858,0.858,0.859,0.8601,0.8604,0.8605,0.8609,0.8609,0.8597,0.8605,0.8648,0.8655,0.8661,0.8665,0.8597,0.8597,0.8559,0.8558,0.8558]},{"header":{"parameterUnit":"m.s-1","parameterCategory":1,"la1":30.2991,"la2":30.254,"lo1":-89.0895,"lo2":-89.0444,"dy":0.0017,"dx":0.0017,"nx":28,"ny":28,"refTime":"2025-05-26T03:00:00:Z","depth":0,"parameterNumber":3,"parameterNumberName":"V-component_of_WINDS"},"data":[0,0,0,0,0,0,0,0,0,0,0,0,0,0,0,0,0,0,0,0,0,0,0,0,0,0,0,0,0,0,0,0,0,0,0,0,0,0,0,0,0,0,0,0,0,0,0,0,0,0,0,0,0,0,0,0,0,0,2.618,2.6181,0,2.6247,2.6248,2.6249,2.6314,2.6314,2.6315,2.6316,2.6381,2.6382,2.6383,0,0,0,0,0,0,0,0,0,0,0,0,0,2.6106,2.6107,2.618,2.6181,2.6182,2.6247,2.6248,2.6249,2.6313,2.6314,2.6315,2.6316,2.6381,2.6382,2.6383,0,0,0,0,0,0,0,0,0,0,0,0,0,2.6152,2.6107,2.618,2.6222,2.6227,2.6247,2.6248,2.6249,2.6313,2.6314,2.6316,2.6317,2.638,2.6382,2.6383,2.6366,0,0,2.6387,2.6388,0,0,0,0,0,0,0,0,2.6149,2.6155,2.6215,2.6219,2.6224,2.6274,2.6246,2.6288,2.6313,2.628,2.6316,2.6317,2.6344,2.6348,2.6358,2.6369,2.6372,2.6387,2.6388,2.6389,2.6389,0,0,0,0,0,0,0,2.6146,2.6152,2.6207,2.6216,2.6221,2.6237,2.6245,2.6254,2.6304,2.6283,2.6288,2.6295,2.6347,2.6356,2.636,2.6373,2.6387,2.6389,2.6389,2.639,2.6376,2.6375,0,0,0,0,0,0,2.6137,2.6149,2.6205,2.6209,2.6189,2.6237,2.6246,2.6256,2.6304,2.6313,2.6294,2.6298,2.6353,2.6358,2.6362,2.6348,2.6389,2.639,2.6391,2.6377,2.6376,2.6375,0,0,0,0,0,0,2.6135,2.6141,2.6202,2.618,2.6189,2.6237,2.6248,2.6257,2.6267,2.6312,2.6321,2.6295,2.6355,2.6361,2.6366,2.6351,2.6391,2.6392,2.6379,2.6377,2.6375,2.6317,0,0,0,0,0,0,2.6133,2.614,2.6135,2.618,2.619,2.6204,2.6247,2.6257,2.627,2.6275,2.6316,2.6324,2.6356,2.6363,2.6367,2.6353,2.6393,2.638,2.6378,2.6376,2.632,2.6313,2.6307,0,0,0,0,0,2.613,2.6114,2.6134,2.614,2.6184,2.6203,2.6209,2.6248,2.6268,2.6263,2.6293,2.6322,2.6352,2.6363,2.6368,2.6354,2.6382,2.6379,2.6376,2.6323,2.6314,2.6307,0,0,0,0,0,0,2.6064,2.6121,2.6143,2.6142,2.6168,2.6214,2.6209,2.6237,2.6256,2.6261,2.6307,2.6315,2.6315,2.6335,2.6347,2.6342,2.6371,2.6369,2.6329,2.6321,2.6315,2.631,2.6394,0,0,0,0,0,2.605,2.6061,2.611,2.6104,2.6116,2.616,2.617,2.6198,2.6225,2.6236,2.6266,2.629,2.6306,2.6314,2.6331,2.6323,2.6334,2.6317,2.631,2.6304,2.6302,2.6301,2.6295,2.6366,2.6366,2.6366,0,0,2.602,2.6052,2.6056,2.6092,2.6115,2.6125,2.6168,2.6177,2.6185,2.6237,2.6244,2.6267,2.6298,2.6297,2.6298,2.6314,2.6285,2.6301,2.6296,2.6297,2.6298,2.6291,2.6285,2.6364,2.6364,2.6364,0,0,2.5971,2.5996,2.5995,2.6018,2.6053,2.6083,2.6082,2.6125,2.6143,2.6151,2.6191,2.6201,2.6225,2.6246,2.626,2.6221,2.625,2.6225,2.6191,2.6189,2.6184,2.6179,2.6166,2.6161,2.6223,2.6223,2.6222,0,2.5929,2.5947,2.599,2.5998,2.6012,2.6062,2.6061,2.608,2.6118,2.6127,2.6144,2.6178,2.6202,2.6207,2.6198,2.6207,2.6209,2.6221,2.6181,2.6177,2.6173,2.6161,2.6156,2.6219,2.622,2.622,2.622,0,2.5894,2.5906,2.5901,2.5939,2.5953,2.5955,2.5999,2.6008,2.6035,2.6063,2.6071,2.6103,2.6127,2.613,2.6155,2.614,2.6149,2.6173,2.6203,2.6162,2.6152,2.6148,2.6215,2.6216,2.6217,2.6218,0,0,2.5804,2.5868,2.5865,2.5883,2.5927,2.5936,2.5942,2.5967,2.5975,2.5999,2.6005,2.6026,2.605,2.6065,2.6094,2.6092,2.6061,2.6117,2.6119,2.6106,2.6047,2.6029,2.6023,2.6081,2.608,2.6079,2.6045,0,2.5763,2.5777,2.5817,2.5819,2.5831,2.5879,2.5884,2.591,2.5937,2.5951,2.598,2.5994,2.6024,2.6034,2.6035,2.6065,2.605,2.6068,2.6087,2.6087,2.6078,2.6018,2.5998,2.5964,2.6041,2.604,2.604,0,2.5716,2.574,2.5743,2.5788,2.5795,2.5798,2.5826,2.5839,2.587,2.589,2.5908,2.5941,2.5949,2.5977,2.599,2.6001,2.6012,2.6028,2.6027,2.6031,2.6061,2.602,2.5954,2.5949,2.6034,2.6034,2.6035,0,2.5651,2.5684,2.5691,2.5705,2.5757,2.5759,2.578,2.5814,2.5827,2.5851,2.586,2.5883,2.5896,2.5914,2.5952,2.5969,2.5961,2.5991,2.5977,2.5976,2.5973,2.5973,2.5908,2.5979,2.5979,2.5979,2.5979,0,2.5601,2.5601,2.5663,2.5667,2.5669,2.5715,2.5716,2.5742,2.5771,2.5781,2.5823,2.5831,2.5881,2.5895,2.5925,2.5932,2.5937,2.5953,2.5961,2.5949,2.5947,2.5957,2.596,2.5977,2.5978,2.5978,2.5978,0,2.5528,2.557,2.5581,2.563,2.5642,2.5642,2.5684,2.569,2.572,2.5732,2.5737,2.5783,2.5802,2.5843,2.5871,2.5892,2.5891,2.5905,2.5881,2.5886,2.587,2.5871,2.581,2.5804,2.5877,2.5876,2.5875,0,2.5494,2.5496,2.5546,2.5556,2.5577,2.5593,2.5607,2.5653,2.5666,2.5704,2.5705,2.5728,2.5749,2.5776,2.5812,2.5835,2.585,2.5827,2.5854,2.5843,2.5851,2.5851,2.5852,2.5821,2.582,2.5819,2.5819,0,2.5428,2.5449,2.5469,2.5497,2.5514,2.5537,2.5563,2.5569,2.562,2.5633,2.5654,2.567,2.5701,2.5723,2.5752,2.5774,2.5805,2.581,2.5808,2.5797,2.5783,2.5792,2.5865,2.5811,2.5812,2.5813,2.5813,2.5813,2.5374,2.5379,2.5416,2.5437,2.5462,2.5485,2.5494,2.5526,2.5545,2.5575,2.56,2.5619,2.5652,2.5695,2.5715,2.573,2.5745,2.5742,2.5741,2.574,2.5736,2.5781,2.5735,2.5735,2.5735,2.5736,2.5736,0,2.5312,2.5338,2.5358,2.5394,2.541,2.544,2.547,2.5482,2.5499,2.5528,2.5548,2.5573,2.5595,2.5634,2.5659,2.5664,2.5679,2.5669,2.567,2.5674,2.572,2.572,2.5657,2.5657,2.5657,2.5657,2.5657,2.5657,2.5281,2.5291,2.5317,2.5339,2.5366,2.5386,2.5401,2.5423,2.5447,2.5473,2.5493,2.5518,2.5552,2.558,2.5602,2.5613,2.5621,2.5607,2.5622,2.5663,2.5671,2.5678,2.5678,2.5608,2.5608,2.5575,2.5575,2.5575]}]]